User: anonymous   Login
Location: Albany
(35.0000°S, 118.0000°E)
Time: 17:55:08
(UTC-04:00)
Language:

JAS-1B - Orbit

View from above orbital plane
View from above orbital plane
View from above satellite
View from above satellite

Ground track
Ground track

The orbit data is extracted from the following two-line orbital elements,

1 20480U 90013C   17266.23689101 -.00000035  00000-0 -92799-5 0  9990
2 20480  99.0688  21.1200 0540564 168.9096 192.4496 12.83417344294293
Epoch (UTC): 23 September 2017 05:41:07
Eccentricity: 0.0540564
inclination: 99.0688°
perigee height: 911 km
apogee height: 1744 km
right ascension of ascending node: 21.1200°
argument of perigee: 168.9096°
revolutions per day: 12.83417344
mean anomaly at epoch: 192.4496°
orbit number at epoch: 29429

The dashed part of the orbit path shows where the satellite is in the earth's shadow,  

DLR